Location: Esp�s Alto
(42.4476°N, 0.5876°E)
Time: 19:50:33
(UTC+00:00)

CENTAUR R/B - Pass Details

Date: 22 October 2019
Orbit: 779 x 1409 km, 63.4° (Epoch: 19 November)

Event Time Altitude Azimuth Distance (km) Brightness Sun altitude
Exits shadow 05:43:47 - 306° (NW) 3,970 5.1 -7.1°
Reaches altitude 10° 05:46:20 10° 294° (WNW) 3,397 4.7 -6.6°
Maximum altitude 05:51:37 19° 255° (WSW) 2,855 4.4 -5.7°
Drops below altitude 10° 05:57:02 10° 216° (SW) 3,490 5.1 -4.7°
Sets 06:01:03 0° 199° (SSW) 4,452 5.9 -3.9°
